Change the Weather History Date:

Sunday, July 6, 2014

  Actual Average Record
Temperature  
Mean Temperature 74 °F -  
Max Temperature 86 °F 89 °F 101 °F (2012)
Min Temperature 61 °F 66 °F 53 °F (1951)
Cooling Degree Days 8    
Growing Degree Days 24 (Base 50)    
Moisture  
Dew Point 62 °F    
Average Humidity 69    
Maximum Humidity 100    
Minimum Humidity 43    
Precipitation  
Precipitation 0.00 in - - ()
Sea Level Pressure  
Sea Level Pressure 30.04 in    
Wind  
Wind Speed 5 mph (SSW)    
Max Wind Speed 17 mph    
Max Gust Speed 21 mph    
Visibility 10 miles    
Events      
Averages and records for this station are not official NWS values.
T = Trace of Precipitation, MM = Missing Value Source: NWS Daily Summary

Daily Weather History Graph

Daily Weather History Graph

Search for Another Location

Airport or City:

Trip Planner

Search our weather history database for the weather conditions in past years. The results will help you decide how hot, cold, wet, or windy it might be!

Date:

Astronomy

Jul. 06, 2014 Rise Set
Actual Time 5:33 AM CDT 8:13 PM CDT
Civil Twilight 5:02 AM CDT 8:44 PM CDT
Nautical Twilight 4:23 AM CDT 9:22 PM CDT
Astronomical Twilight 3:40 AM CDT 10:06 PM CDT
Moon 2:17 PM CDT (7/6) 12:47 AM CDT (7/6)
Length of Visible Light 15h 42m
Length of Day
14h 40m
Waxing Gibbous, 62% of the Moon is Illuminated
Jul 6
Waxing Gibbous
Jul 12
Full
Jul 18
Last Quarter
Jul 26
New
Aug 3
First Quarter

Hourly Weather History & Observations

Time (CDT) Temp. Heat Index Dew Point Humidity Pressure Visibility Wind Dir Wind Speed Gust Speed Precip Events Conditions
12:56 AM 64.9 °F - 61.0 °F 87% 30.10 in 10.0 mi Calm Calm - N/A   Clear
1:56 AM 63.9 °F - 59.9 °F 87% 30.09 in 10.0 mi Calm Calm - N/A   Clear
2:56 AM 63.9 °F - 59.9 °F 87% 30.09 in 10.0 mi Calm Calm - N/A   Clear
3:56 AM 63.0 °F - 59.9 °F 90% 30.09 in 10.0 mi Calm Calm - N/A   Clear
4:56 AM 61.9 °F - 61.0 °F 97% 30.09 in 10.0 mi Calm Calm - N/A   Clear
5:56 AM 61.9 °F - 61.9 °F 100% 30.06 in 10.0 mi SSE 5.8 mph - N/A   Clear
6:56 AM 64.9 °F - 61.9 °F 90% 30.07 in 10.0 mi South 5.8 mph - N/A   Clear
7:56 AM 68.0 °F - 63.0 °F 84% 30.09 in 10.0 mi South 5.8 mph - N/A   Clear
8:56 AM 73.9 °F - 63.0 °F 68% 30.10 in 10.0 mi SSW 5.8 mph - N/A   Clear
9:56 AM 79.0 °F - 61.9 °F 56% 30.09 in 10.0 mi SW 10.4 mph - N/A   Partly Cloudy
10:56 AM 81.0 °F 81.7 °F 61.0 °F 50% 30.09 in 10.0 mi WSW 10.4 mph - N/A   Scattered Clouds
11:56 AM 82.9 °F 83.7 °F 61.9 °F 49% 30.06 in 10.0 mi WSW 11.5 mph - N/A   Partly Cloudy
12:56 PM 82.9 °F 82.8 °F 59.0 °F 44% 30.05 in 10.0 mi SW 13.8 mph - N/A   Clear
1:56 PM 83.8 °F 84.1 °F 61.0 °F 46% 30.03 in 10.0 mi WSW 15.0 mph - N/A   Clear
2:56 PM 86.0 °F 86.3 °F 61.9 °F 44% 30.01 in 10.0 mi SW 13.8 mph 20.7 mph N/A   Clear
4:56 PM 86.0 °F 86.1 °F 61.0 °F 43% 29.98 in 10.0 mi SSW 17.3 mph - N/A   Clear
5:56 PM 84.9 °F 85.4 °F 61.9 °F 46% 29.96 in 10.0 mi SSW 15.0 mph - N/A   Clear
6:56 PM 82.9 °F 83.7 °F 61.9 °F 49% 29.96 in 10.0 mi SSW 11.5 mph - N/A   Clear
7:56 PM 77.9 °F - 63.0 °F 60% 29.96 in 10.0 mi SSW 8.1 mph - N/A   Clear
8:56 PM 73.9 °F - 63.9 °F 71% 29.96 in 10.0 mi SW 4.6 mph - N/A   Clear
9:56 PM 72.0 °F - 63.0 °F 73% 29.97 in 10.0 mi SSW 4.6 mph - N/A   Clear
10:56 PM 68.9 °F - 63.9 °F 84% 29.96 in 10.0 mi South 4.6 mph - N/A   Clear
11:56 PM 68.9 °F - 63.0 °F 81% 29.97 in 10.0 mi Calm Calm - N/A   Clear